QPF
0.00 0.00 0.00 0.00 0.00 0.00 0.00 0.00 0.00 0.00 0.00 0.00 0.00 0.00 0.00 0.00 0.00 0.00 0.00 0.00 0.00 0.00 0.00 0.00 0.00 0.00 0.00 0.01 0.01 0.03 0.04 0.02 0.02 0.02 0.03 0.04 0.05 0.08 0.11 0.14 0.18 0.19 0.21
0.01 0.00 0.00 0.00 0.00 0.00 0.00 0.00 0.00 0.00 0.00 0.00 0.00 0.00 0.00 0.00 0.00 0.00 0.00 0.00 0.00 0.00 0.00 0.00 0.00 0.00 0.01 0.01 0.01 0.02 0.03 0.03 0.03 0.02 0.03 0.03 0.04 0.05 0.09 0.10 0.13 0.18 0.19
0.01 0.00 0.00 0.00 0.00 0.00 0.00 0.00 0.00 0.00 0.00 0.00 0.00 0.00 0.00 0.00 0.00 0.00 0.00 0.00 0.00 0.00 0.00 0.00 0.00 0.00 0.01 0.01 0.01 0.02 0.02 0.04 0.04 0.03 0.04 0.03 0.03 0.03 0.04 0.05 0.08 0.13 0.15
0.01 0.00 0.00 0.00 0.00 0.00 0.00 0.00 0.00 0.00 0.00 0.00 0.00 0.00 0.00 0.00 0.00 0.00 0.00 0.00 0.00 0.00 0.00 0.00 0.00 0.00 0.00 0.00 0.01 0.02 0.02 0.02 0.02 0.03 0.03 0.03 0.03 0.02 0.03 0.03 0.04 0.07 0.09
0.00 0.00 0.00 0.00 0.00 0.00 0.00 0.00 0.00 0.00 0.00 0.00 0.00 0.00 0.00 0.00 0.00 0.00 0.00 0.00 0.00 0.00 0.00 0.00 0.00 0.00 0.00 0.00 0.00 0.02 0.02 0.02 0.02 0.02 0.02 0.02 0.02 0.02 0.02 0.04 0.05 0.05 0.07
0.00 0.00 0.00 0.00 0.00 0.00 0.00 0.00 0.00 0.00 0.00 0.00 0.00 0.00 0.00 0.00 0.00 0.00 0.00 0.00 0.00 0.00 0.00 0.00 0.00 0.00 0.00 0.00 0.00 0.01 0.03 0.02 0.02 0.03 0.02 0.02 0.02 0.02 0.02 0.02 0.04 0.04 0.06
0.00 0.00 0.00 0.00 0.00 0.00 0.00 0.00 0.00 0.00 0.00 0.00 0.00 0.00 0.00 0.00 0.00 0.00 0.00 0.00 0.00 0.00 0.00 0.00 0.00 0.00 0.00 0.00 0.00 0.00 0.01 0.01 0.02 0.02 0.01 0.01 0.01 0.01 0.02 0.01 0.01 0.02 0.04
0.00 0.00 0.00 0.00 0.00 0.00 0.00 0.00 0.00 0.00 0.00 0.00 0.00 0.00 0.00 0.00 0.00 0.00 0.00 0.00 0.00 0.00 0.00 0.00 0.00 0.00 0.00 0.00 0.00 0.00 0.00 0.01 0.01 0.00 0.01 0.01 0.01 0.00 0.01 0.01 0.01 0.02 0.02
0.00 0.00 0.00 0.00 0.00 0.00 0.00 0.00 0.00 0.00 0.00 0.00 0.00 0.00 0.00 0.00 0.00 0.00 0.00 0.00 0.00 0.00 0.00 0.00 0.00 0.00 0.00 0.00 0.00 0.00 0.00 0.00 0.00 0.01 0.01 0.01 0.01 0.00 0.01 0.01 0.01 0.01 0.02
0.00 0.00 0.00 0.00 0.00 0.00 0.00 0.00 0.00 0.00 0.00 0.00 0.00 0.00 0.00 0.00 0.00 0.00 0.00 0.00 0.00 0.00 0.00 0.00 0.00 0.00 0.00 0.00 0.00 0.00 0.00 0.00 0.00 0.00 0.00 0.00 0.01 0.01 0.01 0.01 0.01 0.01 0.02
0.00 0.00 0.00 0.00 0.00 0.00 0.00 0.00 0.00 0.00 0.00 0.00 0.00 0.00 0.00 0.00 0.00 0.00 0.00 0.00 0.00 0.00 0.00 0.00 0.00 0.00 0.00 0.00 0.00 0.01 0.01 0.00 0.00 0.00 0.00 0.00 0.01 0.02 0.01 0.00 0.01 0.00 0.00
0.00 0.00 0.00 0.00 0.00 0.00 0.00 0.00 0.00 0.00 0.00 0.00 0.00 0.00 0.00 0.00 0.00 0.00 0.00 0.00 0.00 0.00 0.00 0.00 0.00 0.00 0.00 0.00 0.00 0.00 0.00 0.01 0.01 0.00 0.01 0.00 0.00 0.01 0.01 0.00 0.00 0.01 0.01
0.00 0.00 0.00 0.00 0.00 0.00 0.00 0.00 0.00 0.00 0.00 0.00 0.00 0.00 0.00 0.00 0.00 0.00 0.00 0.00 0.00 0.00 0.00 0.00 0.00 0.00 0.00 0.00 0.00 0.00 0.00 0.01 0.01 0.01 0.01 0.00 0.00 0.00 0.00 0.01 0.01 0.01 0.01
0.00 0.00 0.00 0.00 0.00 0.00 0.00 0.00 0.00 0.00 0.00 0.00 0.00 0.00 0.00 0.00 0.00 0.00 0.00 0.00 0.00 0.00 0.00 0.00 0.00 0.00 0.00 0.00 0.00 0.00 0.01 0.00 0.00 0.00 0.00 0.01 0.01 0.01 0.01 0.01 0.01 0.01 0.01
0.00 0.00 0.00 0.00 0.00 0.00 0.00 0.00 0.00 0.00 0.00 0.00 0.00 0.00 0.00 0.00 0.00 0.00 0.00 0.00 0.00 0.00 0.00 0.00 0.00 0.00 0.00 0.00 0.00 0.00 0.00 0.00 0.00 0.00 0.00 0.00 0.00 0.00 0.00 0.01 0.01 0.01 0.01
0.00 0.00 0.00 0.00 0.00 0.00 0.00 0.00 0.00 0.00 0.00 0.00 0.00 0.00 0.00 0.00 0.00 0.00 0.00 0.00 0.00 0.00 0.00 0.00 0.00 0.00 0.00 0.00 0.00 0.00 0.00 0.00 0.00 0.00 0.00 0.00 0.00 0.00 0.00 0.00 0.00 0.01 0.01
0.00 0.00 0.00 0.00 0.00 0.00 0.00 0.00 0.00 0.00 0.00 0.00 0.00 0.00 0.00 0.00 0.00 0.00 0.00 0.00 0.00 0.00 0.00 0.00 0.00 0.00 0.00 0.00 0.00 0.00 0.00 0.00 0.00 0.00 0.00 0.00 0.00 0.00 0.01 0.01 0.00 0.01 0.00
0.00 0.00 0.00 0.00 0.00 0.00 0.00 0.00 0.00 0.00 0.00 0.00 0.00 0.00 0.00 0.00 0.00 0.00 0.00 0.00 0.00 0.00 0.00 0.00 0.00 0.00 0.00 0.00 0.00 0.00 0.00 0.00 0.00 0.00 0.00 0.00 0.00 0.00 0.00 0.01 0.01 0.01 0.00
0.00 0.00 0.00 0.00 0.00 0.00 0.00 0.00 0.00 0.00 0.00 0.00 0.00 0.00 0.00 0.00 0.00 0.00 0.00 0.00 0.00 0.00 0.00 0.00 0.00 0.00 0.00 0.00 0.00 0.00 0.00 0.00 0.00 0.00 0.00 0.00 0.00 0.00 0.00 0.00 0.01 0.01 0.00
0.00 0.00 0.00 0.00 0.00 0.00 0.00 0.00 0.00 0.00 0.00 0.00 0.00 0.00 0.00 0.00 0.00 0.00 0.00 0.00 0.00 0.00 0.00 0.00 0.00 0.00 0.00 0.00 0.00 0.00 0.00 0.00 0.00 0.00 0.00 0.00 0.00 0.00 0.00 0.00 0.00 0.01 0.00
0.00 0.00 0.00 0.00 0.00 0.00 0.00 0.00 0.00 0.00 0.00 0.00 0.00 0.00 0.00 0.00 0.00 0.00 0.00 0.00 0.00 0.00 0.00 0.00 0.00 0.00 0.00 0.00 0.00 0.00 0.00 0.00 0.00 0.00 0.00 0.00 0.00 0.00 0.00 0.00 0.00 0.01 0.01
0.00 0.00 0.00 0.00 0.00 0.00 0.00 0.00 0.00 0.00 0.00 0.00 0.00 0.00 0.00 0.00 0.00 0.00 0.00 0.00 0.00 0.00 0.00 0.00 0.00 0.00 0.00 0.00 0.00 0.00 0.00 0.00 0.00 0.00 0.00 0.00 0.00 0.00 0.00 0.00 0.00 0.00 0.00
0.00 0.00 0.00 0.00 0.00 0.00 0.00 0.00 0.00 0.00 0.00 0.00 0.00 0.00 0.00 0.00 0.00 0.00 0.00 0.00 0.00 0.00 0.00 0.00 0.00 0.00 0.00 0.00 0.00 0.00 0.00 0.00 0.00 0.00 0.00 0.00 0.00 0.00 0.00 0.00 0.00 0.00 0.00
0.00 0.00 0.00 0.00 0.00 0.00 0.00 0.00 0.00 0.00 0.00 0.00 0.00 0.00 0.00 0.00 0.00 0.00 0.00 0.00 0.00 0.00 0.00 0.00 0.00 0.00 0.00 0.00 0.00 0.00 0.00 0.00 0.00 0.00 0.00 0.00 0.00 0.00 0.00 0.00 0.00 0.00 0.00
0.00 0.00 0.00 0.00 0.00 0.00 0.00 0.00 0.00 0.00 0.00 0.00 0.00 0.00 0.00 0.00 0.00 0.00 0.00 0.00 0.00 0.00 0.00 0.00 0.00 0.00 0.00 0.00 0.00 0.00 0.00 0.00 0.00 0.00 0.00 0.00 0.00 0.00 0.00 0.00 0.00 0.00 0.00
0.00 0.00 0.00 0.00 0.00 0.00 0.00 0.00 0.00 0.00 0.00 0.00 0.00 0.00 0.00 0.00 0.00 0.00 0.00 0.00 0.00 0.00 0.00 0.00 0.00 0.00 0.00 0.00 0.00 0.00 0.00 0.00 0.00 0.00 0.00 0.00 0.00 0.00 0.00 0.00 0.00 0.00 0.00
MSLP
1010.70 1010.93 1011.17 1011.37 1011.55 1011.69 1011.83 1012.00 1012.22 1012.50 1012.84 1013.21 1013.57 1013.89 1014.13 1014.25 1014.25 1014.16 1014.01 1013.84 1013.69 1013.60 1013.59 1013.64 1013.73 1013.83 1013.91 1013.91 1013.84 1013.68 1013.45 1013.18 1012.90 1012.64 1012.41 1012.21 1012.05 1011.91 1011.77 1011.61 1011.44 1011.26 1011.10
1010.34 1010.63 1010.91 1011.14 1011.33 1011.47 1011.59 1011.74 1011.96 1012.26 1012.63 1013.06 1013.49 1013.88 1014.17 1014.34 1014.37 1014.28 1014.13 1013.94 1013.78 1013.68 1013.67 1013.73 1013.84 1013.96 1014.05 1014.08 1014.02 1013.88 1013.68 1013.45 1013.21 1013.01 1012.84 1012.71 1012.61 1012.50 1012.37 1012.19 1011.98 1011.74 1011.49
1009.96 1010.29 1010.61 1010.89 1011.10 1011.25 1011.37 1011.52 1011.74 1012.04 1012.44 1012.91 1013.38 1013.82 1014.16 1014.37 1014.43 1014.36 1014.21 1014.03 1013.87 1013.77 1013.75 1013.81 1013.93 1014.05 1014.14 1014.17 1014.12 1014.01 1013.84 1013.66 1013.50 1013.38 1013.30 1013.26 1013.23 1013.18 1013.07 1012.90 1012.66 1012.36 1012.05
1009.55 1009.91 1010.28 1010.61 1010.86 1011.03 1011.18 1011.33 1011.54 1011.85 1012.26 1012.74 1013.24 1013.71 1014.08 1014.32 1014.41 1014.37 1014.23 1014.07 1013.92 1013.82 1013.81 1013.87 1013.97 1014.08 1014.17 1014.19 1014.16 1014.07 1013.94 1013.82 1013.74 1013.71 1013.73 1013.78 1013.84 1013.85 1013.80 1013.64 1013.39 1013.06 1012.69
1009.13 1009.51 1009.92 1010.30 1010.60 1010.82 1010.99 1011.15 1011.37 1011.67 1012.07 1012.55 1013.05 1013.52 1013.91 1014.17 1014.28 1014.27 1014.17 1014.03 1013.91 1013.83 1013.81 1013.87 1013.97 1014.07 1014.15 1014.17 1014.15 1014.08 1014.00 1013.94 1013.92 1013.97 1014.08 1014.22 1014.36 1014.45 1014.44 1014.32 1014.08 1013.74 1013.33
1008.71 1009.10 1009.55 1009.97 1010.32 1010.58 1010.78 1010.96 1011.18 1011.47 1011.86 1012.31 1012.79 1013.25 1013.64 1013.91 1014.06 1014.08 1014.02 1013.91 1013.82 1013.76 1013.76 1013.83 1013.92 1014.02 1014.09 1014.12 1014.11 1014.07 1014.02 1014.01 1014.05 1014.16 1014.33 1014.54 1014.73 1014.88 1014.92 1014.84 1014.63 1014.31 1013.90
1008.32 1008.70 1009.16 1009.62 1010.00 1010.30 1010.53 1010.73 1010.95 1011.23 1011.58 1012.00 1012.46 1012.90 1013.28 1013.57 1013.73 1013.79 1013.77 1013.71 1013.65 1013.63 1013.66 1013.73 1013.84 1013.95 1014.03 1014.07 1014.07 1014.05 1014.03 1014.05 1014.12 1014.26 1014.46 1014.70 1014.93 1015.11 1015.19 1015.16 1014.99 1014.71 1014.33
1007.97 1008.33 1008.79 1009.25 1009.65 1009.97 1010.22 1010.43 1010.64 1010.91 1011.24 1011.63 1012.06 1012.48 1012.85 1013.14 1013.33 1013.43 1013.45 1013.43 1013.42 1013.44 1013.50 1013.60 1013.73 1013.85 1013.95 1014.02 1014.04 1014.04 1014.04 1014.07 1014.14 1014.28 1014.48 1014.71 1014.95 1015.14 1015.26 1015.26 1015.15 1014.93 1014.62
1007.68 1007.99 1008.42 1008.87 1009.27 1009.59 1009.83 1010.04 1010.25 1010.50 1010.81 1011.19 1011.59 1012.00 1012.38 1012.68 1012.89 1013.02 1013.09 1013.12 1013.15 1013.20 1013.30 1013.43 1013.59 1013.74 1013.87 1013.96 1014.01 1014.03 1014.04 1014.07 1014.13 1014.24 1014.41 1014.61 1014.82 1015.01 1015.14 1015.19 1015.14 1014.99 1014.76
1007.46 1007.72 1008.09 1008.49 1008.85 1009.14 1009.37 1009.57 1009.77 1010.02 1010.32 1010.68 1011.09 1011.50 1011.88 1012.20 1012.44 1012.60 1012.71 1012.78 1012.85 1012.94 1013.06 1013.23 1013.41 1013.59 1013.75 1013.88 1013.96 1014.00 1014.02 1014.04 1014.08 1014.15 1014.27 1014.43 1014.60 1014.77 1014.91 1014.99 1015.00 1014.94 1014.80
1007.31 1007.50 1007.80 1008.13 1008.42 1008.66 1008.85 1009.03 1009.22 1009.46 1009.77 1010.14 1010.56 1010.98 1011.39 1011.73 1012.00 1012.19 1012.33 1012.43 1012.53 1012.64 1012.79 1012.97 1013.17 1013.38 1013.58 1013.73 1013.84 1013.91 1013.94 1013.96 1013.98 1014.02 1014.09 1014.20 1014.34 1014.48 1014.62 1014.73 1014.80 1014.81 1014.77
1007.25 1007.36 1007.57 1007.79 1007.99 1008.15 1008.29 1008.43 1008.62 1008.86 1009.18 1009.57 1010.01 1010.46 1010.89 1011.27 1011.57 1011.79 1011.95 1012.07 1012.18 1012.31 1012.46 1012.65 1012.87 1013.09 1013.31 1013.50 1013.64 1013.73 1013.79 1013.81 1013.82 1013.84 1013.88 1013.95 1014.06 1014.19 1014.33 1014.46 1014.58 1014.66 1014.69
1007.26 1007.29 1007.39 1007.49 1007.58 1007.65 1007.72 1007.83 1007.99 1008.23 1008.57 1008.98 1009.45 1009.93 1010.39 1010.80 1011.12 1011.37 1011.55 1011.69 1011.80 1011.93 1012.08 1012.26 1012.48 1012.71 1012.94 1013.15 1013.32 1013.44 1013.52 1013.56 1013.58 1013.60 1013.63 1013.68 1013.77 1013.89 1014.03 1014.19 1014.35 1014.48 1014.58
1007.35 1007.28 1007.26 1007.23 1007.20 1007.17 1007.17 1007.22 1007.35 1007.59 1007.94 1008.37 1008.86 1009.37 1009.86 1010.29 1010.64 1010.91 1011.11 1011.26 1011.38 1011.50 1011.64 1011.81 1012.02 1012.24 1012.47 1012.69 1012.88 1013.03 1013.13 1013.20 1013.24 1013.27 1013.31 1013.37 1013.46 1013.58 1013.74 1013.91 1014.09 1014.26 1014.40
1007.48 1007.31 1007.16 1007.01 1006.86 1006.72 1006.64 1006.63 1006.74 1006.96 1007.30 1007.73 1008.23 1008.75 1009.25 1009.71 1010.08 1010.37 1010.59 1010.76 1010.89 1011.01 1011.15 1011.31 1011.50 1011.71 1011.93 1012.14 1012.34 1012.50 1012.63 1012.72 1012.79 1012.85 1012.92 1012.99 1013.10 1013.23 1013.40 1013.59 1013.78 1013.97 1014.14
1007.63 1007.37 1007.10 1006.82 1006.55 1006.32 1006.15 1006.08 1006.14 1006.33 1006.64 1007.06 1007.54 1008.06 1008.56 1009.02 1009.41 1009.73 1009.98 1010.17 1010.33 1010.47 1010.61 1010.76 1010.94 1011.14 1011.34 1011.54 1011.73 1011.89 1012.03 1012.15 1012.25 1012.34 1012.43 1012.54 1012.67 1012.82 1013.00 1013.19 1013.40 1013.59 1013.77
1007.78 1007.42 1007.04 1006.65 1006.28 1005.96 1005.72 1005.59 1005.59 1005.72 1005.99 1006.36 1006.80 1007.28 1007.77 1008.22 1008.63 1008.97 1009.26 1009.50 1009.69 1009.87 1010.03 1010.20 1010.38 1010.56 1010.74 1010.92 1011.09 1011.24 1011.38 1011.51 1011.63 1011.75 1011.87 1012.01 1012.16 1012.34 1012.52 1012.72 1012.93 1013.13 1013.31
1007.90 1007.45 1006.98 1006.50 1006.05 1005.66 1005.35 1005.15 1005.08 1005.15 1005.34 1005.63 1006.01 1006.43 1006.88 1007.31 1007.72 1008.10 1008.43 1008.72 1008.99 1009.22 1009.43 1009.63 1009.82 1010.00 1010.16 1010.32 1010.46 1010.59 1010.72 1010.85 1010.98 1011.11 1011.26 1011.43 1011.60 1011.79 1011.99 1012.20 1012.40 1012.59 1012.77
1008.00 1007.47 1006.93 1006.39 1005.88 1005.42 1005.05 1004.79 1004.65 1004.63 1004.72 1004.92 1005.20 1005.54 1005.92 1006.32 1006.73 1007.12 1007.51 1007.87 1008.21 1008.52 1008.81 1009.06 1009.28 1009.47 1009.62 1009.76 1009.87 1009.98 1010.09 1010.20 1010.33 1010.48 1010.64 1010.83 1011.03 1011.24 1011.45 1011.66 1011.86 1012.04 1012.21
1008.08 1007.50 1006.90 1006.32 1005.76 1005.27 1004.85 1004.52 1004.30 1004.18 1004.16 1004.24 1004.40 1004.64 1004.94 1005.29 1005.67 1006.09 1006.52 1006.95 1007.37 1007.77 1008.14 1008.46 1008.73 1008.94 1009.11 1009.24 1009.33 1009.42 1009.51 1009.60 1009.73 1009.88 1010.06 1010.26 1010.48 1010.71 1010.94 1011.16 1011.36 1011.55 1011.71
1008.17 1007.55 1006.92 1006.31 1005.73 1005.20 1004.74 1004.35 1004.04 1003.82 1003.68 1003.63 1003.66 1003.78 1003.97 1004.25 1004.61 1005.02 1005.48 1005.98 1006.48 1006.97 1007.43 1007.82 1008.15 1008.41 1008.60 1008.74 1008.83 1008.91 1008.98 1009.08 1009.20 1009.35 1009.55 1009.77 1010.02 1010.27 1010.51 1010.75 1010.96 1011.15 1011.32
1008.29 1007.64 1006.99 1006.37 1005.77 1005.22 1004.71 1004.26 1003.87 1003.55 1003.28 1003.10 1003.00 1002.99 1003.07 1003.27 1003.57 1003.97 1004.44 1004.98 1005.55 1006.11 1006.65 1007.13 1007.53 1007.85 1008.09 1008.25 1008.36 1008.44 1008.52 1008.62 1008.75 1008.91 1009.13 1009.37 1009.64 1009.92 1010.20 1010.46 1010.69 1010.90 1011.07
1008.44 1007.78 1007.12 1006.49 1005.88 1005.31 1004.76 1004.26 1003.79 1003.36 1002.98 1002.67 1002.43 1002.29 1002.27 1002.37 1002.60 1002.96 1003.43 1003.98 1004.59 1005.22 1005.83 1006.38 1006.86 1007.24 1007.54 1007.75 1007.90 1008.01 1008.11 1008.22 1008.37 1008.56 1008.79 1009.06 1009.36 1009.68 1009.99 1010.28 1010.54 1010.77 1010.96
1008.63 1007.96 1007.29 1006.65 1006.03 1005.43 1004.85 1004.29 1003.75 1003.23 1002.75 1002.32 1001.96 1001.70 1001.57 1001.57 1001.72 1002.02 1002.46 1003.01 1003.64 1004.30 1004.96 1005.58 1006.13 1006.59 1006.96 1007.23 1007.44 1007.60 1007.74 1007.88 1008.05 1008.27 1008.52 1008.82 1009.15 1009.50 1009.85 1010.18 1010.48 1010.74 1010.96
1008.83 1008.14 1007.47 1006.81 1006.17 1005.54 1004.93 1004.32 1003.72 1003.13 1002.56 1002.03 1001.57 1001.21 1000.97 1000.87 1000.94 1001.17 1001.56 1002.08 1002.70 1003.39 1004.09 1004.76 1005.38 1005.91 1006.35 1006.71 1006.98 1007.20 1007.39 1007.58 1007.78 1008.02 1008.30 1008.62 1008.98 1009.35 1009.74 1010.11 1010.45 1010.76 1011.02
1008.98 1008.28 1007.59 1006.91 1006.25 1005.59 1004.95 1004.30 1003.65 1003.00 1002.37 1001.77 1001.23 1000.78 1000.45 1000.26 1000.25 1000.40 1000.73 1001.21 1001.81 1002.49 1003.22 1003.94 1004.62 1005.22 1005.75 1006.18 1006.53 1006.82 1007.07 1007.30 1007.53 1007.79 1008.09 1008.43 1008.80 1009.20 1009.61 1010.02 1010.41 1010.77 1011.08
Thickness
5766 5766 5764 5762 5758 5755 5752 5748 5745 5742 5738 5734 5728 5723 5719 5716 5714 5711 5709 5705 5702 5698 5695 5691 5688 5685 5682 5680 5679 5679 5678 5679 5683 5683 5685 5690 5696 5699 5703 5708 5713 5717 5721
5760 5760 5760 5758 5756 5753 5750 5747 5744 5741 5738 5734 5729 5724 5720 5715 5712 5710 5707 5704 5700 5697 5694 5690 5686 5683 5680 5678 5677 5676 5675 5676 5678 5678 5677 5678 5684 5692 5699 5703 5708 5712 5716
5761 5759 5757 5755 5754 5751 5749 5748 5743 5740 5737 5734 5729 5723 5718 5713 5709 5707 5704 5702 5699 5696 5692 5689 5685 5682 5679 5677 5676 5675 5673 5672 5674 5676 5675 5673 5674 5681 5690 5697 5702 5707 5711
5764 5760 5758 5754 5753 5752 5751 5748 5743 5740 5737 5733 5728 5722 5715 5709 5707 5705 5703 5701 5698 5695 5691 5688 5685 5682 5679 5676 5675 5674 5673 5672 5671 5673 5675 5676 5678 5677 5680 5688 5696 5702 5706
5765 5762 5760 5758 5755 5753 5750 5747 5743 5739 5736 5732 5728 5721 5715 5711 5708 5705 5702 5699 5696 5694 5691 5688 5684 5681 5679 5677 5675 5674 5672 5671 5671 5671 5672 5674 5676 5678 5678 5679 5686 5694 5701
5764 5763 5761 5757 5753 5751 5748 5745 5741 5737 5735 5731 5727 5722 5717 5712 5708 5704 5701 5697 5694 5692 5690 5687 5684 5682 5679 5677 5676 5674 5673 5671 5671 5670 5671 5672 5673 5674 5676 5676 5680 5686 5694
5761 5758 5755 5752 5749 5747 5746 5743 5739 5736 5733 5730 5726 5723 5718 5713 5709 5705 5701 5697 5693 5691 5689 5687 5684 5682 5679 5678 5676 5674 5673 5672 5670 5670 5670 5671 5673 5675 5676 5676 5677 5681 5688
5759 5758 5756 5753 5750 5748 5745 5742 5739 5735 5732 5729 5726 5723 5719 5714 5710 5707 5703 5699 5695 5693 5691 5688 5685 5683 5680 5678 5676 5674 5673 5671 5670 5670 5670 5670 5671 5674 5675 5675 5676 5676 5680
5757 5756 5755 5753 5751 5748 5746 5744 5739 5736 5733 5730 5726 5723 5719 5716 5712 5709 5705 5701 5698 5695 5692 5689 5686 5683 5681 5679 5676 5674 5673 5671 5670 5669 5669 5669 5670 5672 5674 5676 5676 5675 5674
5756 5755 5754 5753 5752 5750 5748 5744 5741 5737 5734 5730 5727 5724 5720 5717 5713 5709 5705 5702 5699 5697 5693 5690 5687 5684 5681 5679 5676 5674 5673 5671 5670 5669 5668 5668 5669 5670 5672 5673 5675 5676 5675
5755 5755 5755 5754 5752 5749 5746 5742 5739 5736 5733 5730 5727 5724 5720 5717 5713 5710 5706 5703 5700 5697 5694 5691 5687 5684 5681 5679 5676 5674 5673 5671 5669 5669 5668 5667 5668 5668 5669 5670 5671 5672 5673
5756 5755 5754 5751 5748 5746 5744 5741 5739 5736 5733 5731 5727 5723 5720 5716 5712 5709 5707 5704 5701 5698 5695 5691 5688 5685 5682 5679 5676 5674 5672 5670 5669 5668 5667 5666 5667 5666 5666 5667 5668 5669 5670
5752 5750 5749 5747 5746 5745 5743 5741 5738 5736 5734 5730 5726 5722 5718 5715 5712 5709 5707 5704 5701 5698 5695 5692 5688 5686 5683 5680 5677 5675 5673 5671 5669 5668 5666 5665 5664 5663 5664 5664 5665 5666 5668
5746 5745 5743 5743 5744 5744 5743 5741 5738 5736 5733 5729 5725 5721 5718 5715 5713 5710 5707 5704 5701 5698 5694 5692 5689 5687 5684 5681 5679 5676 5673 5671 5669 5668 5666 5665 5664 5663 5662 5662 5662 5663 5663
5740 5740 5740 5740 5740 5740 5740 5740 5738 5735 5732 5727 5724 5721 5719 5716 5713 5709 5706 5704 5701 5698 5695 5692 5689 5687 5685 5683 5679 5677 5674 5671 5669 5667 5665 5665 5664 5664 5662 5661 5660 5659 5658
5735 5737 5738 5738 5737 5737 5738 5738 5737 5735 5731 5727 5724 5722 5718 5714 5711 5708 5705 5702 5699 5697 5694 5691 5689 5686 5686 5685 5682 5678 5674 5671 5668 5666 5665 5664 5664 5663 5663 5662 5661 5659 5657
5730 5732 5734 5735 5736 5737 5738 5736 5736 5734 5730 5727 5724 5720 5717 5713 5710 5708 5704 5700 5698 5695 5693 5690 5688 5685 5685 5684 5682 5679 5675 5671 5668 5666 5664 5664 5664 5662 5660 5660 5660 5658 5658
5725 5728 5730 5732 5735 5736 5737 5736 5734 5731 5728 5725 5722 5719 5715 5712 5709 5705 5702 5699 5697 5694 5691 5689 5687 5685 5684 5684 5682 5679 5675 5671 5669 5667 5665 5662 5662 5661 5659 5657 5655 5655 5655
5721 5723 5727 5729 5730 5731 5732 5731 5728 5726 5723 5722 5720 5718 5714 5710 5706 5703 5701 5698 5695 5692 5690 5688 5686 5683 5683 5683 5681 5678 5673 5670 5669 5667 5665 5663 5661 5661 5659 5655 5653 5651 5652
5714 5717 5720 5723 5723 5724 5724 5723 5721 5719 5719 5720 5719 5717 5714 5709 5706 5703 5700 5697 5694 5691 5689 5686 5684 5682 5681 5681 5680 5677 5671 5668 5667 5665 5664 5663 5662 5661 5658 5654 5651 5649 5648
5704 5708 5710 5711 5713 5715 5715 5714 5714 5715 5719 5719 5717 5714 5712 5709 5706 5702 5698 5695 5692 5688 5685 5683 5681 5680 5679 5679 5678 5676 5670 5667 5665 5662 5661 5660 5660 5659 5656 5653 5650 5648 5646
5692 5695 5696 5699 5702 5704 5704 5704 5706 5711 5713 5712 5711 5710 5708 5706 5703 5698 5694 5691 5688 5683 5680 5678 5676 5675 5675 5675 5675 5674 5670 5667 5663 5660 5659 5657 5657 5655 5653 5651 5649 5646 5643
5676 5680 5681 5685 5689 5691 5692 5693 5699 5702 5702 5703 5703 5704 5703 5701 5699 5695 5690 5686 5683 5680 5677 5674 5672 5670 5670 5670 5671 5670 5668 5665 5660 5658 5656 5654 5653 5651 5648 5647 5644 5641 5637
5660 5663 5666 5669 5673 5678 5680 5683 5688 5691 5692 5693 5695 5696 5695 5693 5692 5690 5687 5683 5680 5676 5674 5671 5669 5666 5664 5663 5664 5663 5661 5659 5656 5653 5651 5649 5647 5644 5642 5640 5637 5634 5632
5643 5646 5647 5651 5657 5663 5667 5671 5675 5678 5679 5682 5684 5685 5686 5686 5684 5683 5682 5681 5681 5679 5675 5671 5668 5663 5660 5661 5661 5658 5655 5653 5650 5647 5643 5640 5638 5635 5633 5631 5629 5626 5624
5625 5627 5630 5634 5640 5646 5651 5656 5660 5663 5666 5668 5671 5674 5675 5675 5675 5673 5669 5671 5673 5673 5673 5671 5667 5664 5663 5659 5656 5654 5652 5649 5646 5641 5637 5634 5631 5629 5626 5623 5621 5618 5616